Location: Newark
(12.4436°N, 0.6167°W)
Time: 11:25:08
(UTC+00:00)

Vanguard 2 - Pass Details

Date: 17 December 2019
Orbit: 553 x 2938 km, 32.9° (Epoch: 19 January)

Event Time Altitude Azimuth Distance (km) Brightness Sun altitude
Rises 08:02:09 0° 292° (WNW) 6,739 11.7 22.1°
Reaches altitude 10° 08:07:15 10° 286° (WNW) 5,582 11.4 23.1°
Maximum altitude 08:21:52 42° 223° (SW) 2,910 10.7 26.1°
Drops below altitude 10° 08:31:51 10° 156° (SSE) 3,838 12.2 28.1°
Sets 08:34:41 0° 148° (SSE) 4,524 12.5 28.7°
